Zurück zum Katalog

BREEZE-KM R/B

AktivPO
NORAD 39060·ROCKET BODY·🇷🇺 Russia

Gestartet Jan 15, 2013 von Plesetsk Cosmodrome

Loading…

Nächste Überflüge (nächste 24 Stunden)

TLE

AktuellSource: Space-Track

Epoche: Sep 14, 2026, 03:31 UTC

1 39060U 13001D   26257.14719728  .00000026  00000-0  11974-3 0  9997
2 39060  82.4959 164.4070 0012689 233.0184 126.9735 12.42578405619621

Verfolge BREEZE-KM R/B in Echtzeit mit AllMySat

Download on the App Store